• In Hungary
  • List of Countries
  • For 7 days
  • Water Temperature
  • Satellite Maps
  • Weather Map
  • News
  • Weather Widgets
  • user-avatar
    Login

    Hourly Weather Maidstone

    Today, 24 May, Thursday

    Time Temperature Precipitation Wind Pressure Humidity
    00:00 +12°C° 0.2 mm 5 mps 763 mmHg 88%
    01:00 +12°C° 0.3 mm 4 mps 763 mmHg 89%
    02:00 +12°C° 0.3 mm 4 mps 763 mmHg 91%
    03:00 +12°C° 0.3 mm 4 mps 763 mmHg 93%
    04:00 +13°C° 0.3 mm 4 mps 763 mmHg 92%
    05:00 +13°C° 0.3 mm 4 mps 763 mmHg 91%
    06:00 +14°C° 0.3 mm 3 mps 763 mmHg 90%
    07:00 +16°C° 0.1 mm 3 mps 763 mmHg 89%
    08:00 +17°C° 0.1 mm 3 mps 763 mmHg 88%
    09:00 +18°C° 0.1 mm 3 mps 763 mmHg 86%
    10:00 +19°C° 0.4 mm 4 mps 762 mmHg 81%
    11:00 +20°C° 0.4 mm 4 mps 762 mmHg 76%
    12:00 +22°C° 0.4 mm 4 mps 762 mmHg 70%
    13:00 +22°C° 0.4 mm 4 mps 761 mmHg 70%
    14:00 +21°C° 0.4 mm 4 mps 761 mmHg 69%
    15:00 +21°C° 0.4 mm 4 mps 761 mmHg 69%
    16:00 +20°C° 0.1 mm 4 mps 761 mmHg 72%
    17:00 +20°C° 0.1 mm 4 mps 761 mmHg 74%
    18:00 +19°C° 0.1 mm 4 mps 760 mmHg 77%
    19:00 +18°C° 0.1 mm 4 mps 760 mmHg 81%
    20:00 +17°C° 0.1 mm 4 mps 761 mmHg 84%
    21:00 +16°C° 0.1 mm 3 mps 761 mmHg 88%
    22:00 +14°C° 0.1 mm 3 mps 761 mmHg 89%
    23:00 +14°C° 0.1 mm 3 mps 760 mmHg 91%

    Tomorrow, 25 May, Friday

    Time Temperature Precipitation Wind Pressure Humidity
    00:00 +14°C° 0.1 mm 3 mps 760 mmHg 92%
    01:00 +14°C° 0 mm 3 mps 760 mmHg 93%
    02:00 +13°C° 0 mm 3 mps 760 mmHg 93%
    03:00 +13°C° 0 mm 3 mps 760 mmHg 94%
    04:00 +14°C° 0.1 mm 3 mps 760 mmHg 93%
    05:00 +14°C° 0.1 mm 3 mps 760 mmHg 92%
    06:00 +15°C° 0.1 mm 2 mps 760 mmHg 92%
    07:00 +16°C° 0 mm 2 mps 760 mmHg 89%
    08:00 +17°C° 0 mm 2 mps 760 mmHg 87%
    09:00 +18°C° 0 mm 1 mps 760 mmHg 85%
    10:00 +19°C° 0 mm 1 mps 760 mmHg 82%
    11:00 +20°C° 0 mm 1 mps 760 mmHg 80%
    12:00 +20°C° 0 mm 1 mps 760 mmHg 77%
    13:00 +21°C° 0 mm 1 mps 760 mmHg 76%
    14:00 +21°C° 0 mm 1 mps 760 mmHg 75%
    15:00 +21°C° 0 mm 1 mps 760 mmHg 75%
    16:00 +21°C° 0 mm 1 mps 760 mmHg 76%
    17:00 +21°C° 0 mm 1 mps 760 mmHg 77%
    18:00 +21°C° 0 mm 1 mps 760 mmHg 78%
    19:00 +20°C° 0 mm 1 mps 761 mmHg 82%
    20:00 +19°C° 0 mm 1 mps 761 mmHg 85%
    21:00 +16°C° 0 mm 2 mps 761 mmHg 89%
    22:00 +16°C° 0 mm 2 mps 761 mmHg 90%
    23:00 +16°C° 0 mm 2 mps 761 mmHg 92%

    Day after tomorrow, 26 May, Saturday

    Time Temperature Precipitation Wind Pressure Humidity
    00:00 +15°C° 0 mm 2 mps 761 mmHg 93%
    01:00 +14°C° 0 mm 3 mps 761 mmHg 94%
    02:00 +13°C° 0 mm 3 mps 761 mmHg 95%
    03:00 +13°C° 0 mm 3 mps 761 mmHg 95%
    04:00 +14°C° 0 mm 4 mps 761 mmHg 94%
    05:00 +14°C° 0 mm 4 mps 761 mmHg 92%
    06:00 +15°C° 0 mm 4 mps 761 mmHg 90%
    07:00 +17°C° 0 mm 5 mps 761 mmHg 87%
    08:00 +19°C° 0 mm 5 mps 762 mmHg 83%
    09:00 +21°C° 0 mm 6 mps 762 mmHg 80%
    10:00 +21°C° 0 mm 7 mps 762 mmHg 77%
    11:00 +22°C° 0 mm 7 mps 762 mmHg 75%
    12:00 +23°C° 0 mm 8 mps 762 mmHg 72%
    13:00 +23°C° 0 mm 8 mps 761 mmHg 72%
    14:00 +23°C° 0 mm 8 mps 761 mmHg 73%
    15:00 +23°C° 0 mm 8 mps 761 mmHg 73%
    16:00 +22°C° 0 mm 8 mps 761 mmHg 74%
    17:00 +21°C° 0 mm 8 mps 761 mmHg 76%
    18:00 +20°C° 0 mm 8 mps 761 mmHg 77%
    19:00 +18°C° 0.4 mm 8 mps 761 mmHg 79%
    20:00 +17°C° 0.4 mm 8 mps 762 mmHg 81%
    21:00 +16°C° 0.4 mm 7 mps 762 mmHg 83%
    22:00 +16°C° 0.5 mm 7 mps 762 mmHg 83%
    23:00 +16°C° 0.5 mm 7 mps 762 mmHg 83%

    27 May, Sunday

    Time Temperature Precipitation Wind Pressure Humidity
    00:00 +17°C° 0.5 mm 7 mps 762 mmHg 84%
    01:00 +17°C° 0.2 mm 7 mps 761 mmHg 84%
    02:00 +16°C° 0.2 mm 7 mps 761 mmHg 85%
    03:00 +16°C° 0.2 mm 6 mps 761 mmHg 86%
    04:00 +17°C° 0.1 mm 6 mps 760 mmHg 86%
    05:00 +17°C° 0.1 mm 6 mps 760 mmHg 87%
    06:00 +17°C° 0.1 mm 6 mps 760 mmHg 87%
    07:00 +18°C° 0.1 mm 7 mps 760 mmHg 85%
    08:00 +20°C° 0.1 mm 7 mps 760 mmHg 82%
    09:00 +21°C° 0.1 mm 7 mps 760 mmHg 80%
    10:00 +21°C° 0.5 mm 7 mps 760 mmHg 80%
    11:00 +21°C° 0.5 mm 7 mps 760 mmHg 81%
    12:00 +21°C° 0.5 mm 7 mps 760 mmHg 81%
    13:00 +21°C° 0.5 mm 7 mps 760 mmHg 80%
    14:00 +22°C° 0.5 mm 7 mps 760 mmHg 78%
    15:00 +22°C° 0.5 mm 7 mps 759 mmHg 76%
    16:00 +22°C° 1.1 mm 6 mps 759 mmHg 78%
    17:00 +21°C° 1.1 mm 6 mps 759 mmHg 80%
    18:00 +20°C° 1.1 mm 5 mps 759 mmHg 82%
    19:00 +19°C° 0.5 mm 5 mps 759 mmHg 83%
    20:00 +19°C° 0.5 mm 5 mps 759 mmHg 84%
    21:00 +17°C° 0.5 mm 5 mps 760 mmHg 86%
    22:00 +18°C° 0.4 mm 4 mps 759 mmHg 87%
    23:00 +18°C° 0.4 mm 4 mps 759 mmHg 88%

    28 May, Monday

    Time Temperature Precipitation Wind Pressure Humidity
    00:00 +18°C° 0.4 mm 4 mps 759 mmHg 90%
    01:00 +18°C° 0.3 mm 4 mps 759 mmHg 90%
    02:00 +18°C° 0.3 mm 3 mps 759 mmHg 91%
    03:00 +17°C° 0.3 mm 3 mps 759 mmHg 91%
    04:00 +18°C° 0.2 mm 4 mps 759 mmHg 91%
    05:00 +18°C° 0.2 mm 4 mps 759 mmHg 90%
    06:00 +18°C° 0.2 mm 4 mps 759 mmHg 89%
    07:00 +20°C° 0.4 mm 4 mps 759 mmHg 87%
    08:00 +21°C° 0.4 mm 5 mps 759 mmHg 85%
    09:00 +23°C° 0.4 mm 5 mps 759 mmHg 82%
    10:00 +23°C° 0.7 mm 5 mps 759 mmHg 79%
    11:00 +25°C° 0.7 mm 5 mps 759 mmHg 76%
    12:00 +26°C° 0.7 mm 5 mps 758 mmHg 73%
    13:00 +26°C° 0.6 mm 5 mps 758 mmHg 73%
    14:00 +25°C° 0.6 mm 5 mps 758 mmHg 74%
    15:00 +25°C° 0.6 mm 4 mps 758 mmHg 75%
    16:00 +23°C° 0.3 mm 4 mps 758 mmHg 78%
    17:00 +22°C° 0.3 mm 4 mps 758 mmHg 81%
    18:00 +21°C° 0.3 mm 4 mps 758 mmHg 85%
    19:00 +20°C° 0.1 mm 4 mps 758 mmHg 87%
    20:00 +19°C° 0.1 mm 4 mps 758 mmHg 89%
    21:00 +18°C° 0.1 mm 3 mps 758 mmHg 91%
    22:00 +18°C° 0.1 mm 3 mps 758 mmHg 91%
    23:00 +18°C° 0.1 mm 3 mps 758 mmHg 91%

    29 May, Tuesday

    Time Temperature Precipitation Wind Pressure Humidity
    00:00 +17°C° 0.1 mm 3 mps 758 mmHg 92%
    01:00 +17°C° 0 mm 2 mps 758 mmHg 92%
    02:00 +17°C° 0 mm 2 mps 758 mmHg 92%
    03:00 +17°C° 0 mm 2 mps 758 mmHg 93%
    04:00 +18°C° 0 mm 2 mps 758 mmHg 92%
    05:00 +19°C° 0 mm 3 mps 758 mmHg 91%
    06:00 +20°C° 0 mm 3 mps 758 mmHg 91%
    07:00 +21°C° 0 mm 3 mps 758 mmHg 86%
    08:00 +22°C° 0 mm 3 mps 759 mmHg 82%
    09:00 +24°C° 0 mm 3 mps 759 mmHg 77%
    10:00 +25°C° 0.3 mm 3 mps 759 mmHg 76%
    11:00 +25°C° 0.3 mm 3 mps 759 mmHg 74%
    12:00 +26°C° 0.3 mm 4 mps 759 mmHg 73%
    13:00 +26°C° 0.2 mm 3 mps 758 mmHg 73%
    14:00 +26°C° 0.2 mm 3 mps 758 mmHg 73%
    15:00 +26°C° 0.2 mm 3 mps 758 mmHg 73%
    16:00 +25°C° 0 mm 3 mps 758 mmHg 75%
    17:00 +25°C° 0 mm 3 mps 758 mmHg 77%
    18:00 +24°C° 0 mm 2 mps 758 mmHg 80%
    19:00 +23°C° 0 mm 2 mps 758 mmHg 83%
    20:00 +20°C° 0 mm 2 mps 758 mmHg 86%
    21:00 +20°C° 0 mm 1 mps 759 mmHg 90%
    22:00 +19°C° 0 mm 1 mps 759 mmHg 90%
    23:00 +19°C° 0 mm 1 mps 759 mmHg 91%
    Show more